Back to catalog

COSMOS 1823 DEB

AliveLEO
NORAD 39811·DEBRIS·🇷🇺 Russia

Launched Feb 20, 1987 from Plesetsk Cosmodrome

Loading…

Next Passes (next 24 hours)

TLE

StaleSource: Space-Track

Epoch: Aug 30, 2026, 17:48 UTC

1 39811U 87020EK  26242.74218524  .00000039  00000-0  38750-3 0  9996
2 39811  73.6254 244.2961 0035035 355.1202 182.2457 12.46445924 32008

Track COSMOS 1823 DEB in real time with AllMySat

Download on the App Store